Search your local weather  

 
Advertise Here

Hazardous Weather Conditions

Air Quality Alert issued July 6 at 8:04AM EDT

Current Conditions: NEW YORK, NEW YORK

Fair


80.0 F

Last Updated on Jul 6 2020, 7:51 am EDT
Humidity: 60%
Wind Speed: N 0.0 mph
Barometer 30.04 in
Dewpoint: 64.9 F
Visibility: 10.00 mi
Precip: --
Heat Index: 82 F
Wind Chill: NA
Current conditions at:

New York City, Central Park, NY (KNYC)

Lat: 40.78333 Lon: -73.96667

Local Radar Image active severe weather and emergency alerts image image weather storm and storm spotter reports image weather observation monitoring service image
Local
Radar
Active
Alerts
Storm Reports Weather
Monitoring

5 Day Forecast for NEW YORK, NEW YORK (10001)

Monday

T-storms Likely

High 90 °F
Monday
Night
T-storms Likely

Low 71 °F
Tuesday

Chance of T-storms

High 85 °F
Tuesday
Night
Chance of T-storms

Low 73 °F
Wednesday

Chance of T-storms

High 87 °F
Wednesday
Night
Chance of T-storms

Low 76 °F
Thursday

Isolated T-storm

High 92 °F
Thursday
Night
Isolated T-storm

Low 76 °F
Friday

Chance of T-storms

High 88 °F

Sign-up For Email & Text Message Weather Alert Notification Services


Advertise Here

Observation History for NEW YORK, NEW YORK


Time Wind
(mph)
Vis
(mi)
Weather Precip (in) Temperature (F) Relative
Humidity
Wind
Chill
(F)
Heat
Index
(F)
Pressure
Air Dwpt altimeter
(in)
sea level
(mb)
7:51 am EDT N 0.0 10.00 Fair -- 80.0 64.9 60% NA 82 30.04 1016.2
6:51 am EDT N 0.0 10.00 Fair -- 77.0 63.0 62% NA NA 30.03 1015.8
5:51 am EDT N 0.0 10.00 Fair -- 75.0 63.0 66% NA NA 30.01 1015.4
4:51 am EDT N 0.0 10.00 Fair -- 77.0 62.1 60% NA NA 29.99 1014.6
3:51 am EDT N 0.0 10.00 Fair -- 78.0 64.0 62% NA NA 29.98 1014.3
2:51 am EDT N 0.0 10.00 Fair -- 79.0 64.0 60% NA NA 29.98 1014.1
1:51 am EDT W 5.8 10.00 Fair -- 81.0 62.1 53% NA 82 29.98 1014.3
12:51 am EDT SW 3.5 8.00 Fair -- 79.0 70.0 74% NA NA 29.98 1014.3
11:51 pm EDT N 0.0 9.00 Fair -- 80.0 69.1 69% NA 83 29.97 1014.0
10:51 pm EDT N 0.0 9.00 Fair -- 80.0 70.0 71% NA 83 29.97 1013.9
9:51 pm EDT N 0.0 9.00 Fair -- 81.0 68.0 65% NA 84 29.97 1013.9
8:51 pm EDT 3.5 10.00 Fair -- 83.0 64.9 55% NA 85 29.96 1013.4
7:51 pm EDT N 0.0 10.00 Fair -- 84.0 63.0 49% NA 85 29.94 1012.8
6:51 pm EDT 3.5 10.00 Fair -- 86.0 63.0 46% NA 87 29.93 1012.4
5:51 pm EDT W 5.8 10.00 Fair -- 89.0 54.0 30% NA 87 29.92 1012.1
4:51 pm EDT 3.5 10.00 Fair -- 92.0 52.0 26% NA 89 29.93 1012.5
3:51 pm EDT 10.00 Fair -- 90.0 54.0 29% NA 88 29.93 1012.7
2:51 pm EDT W 4.6 10.00 Fair -- 90.0 59.0 35% NA 89 29.95 1013.0
1:51 pm EDT N 0.0 10.00 Fair -- 90.0 63.0 41% NA 91 29.96 1013.3
12:51 pm EDT N 0.0 10.00 Fair -- 90.0 63.0 41% NA 91 29.97 1013.9
11:51 am EDT W 3.5 8.00 Fair -- 85.0 66.0 53% NA 87 29.98 1014.4
10:51 am EDT 3.5 8.00 Fair -- 81.0 68.0 65% NA 84 29.98 1014.3
9:51 am EDT 3.5 7.00 A Few Clouds -- 77.0 68.0 74% NA NA 29.99 1014.5
8:51 am EDT N 0.0 7.00 Overcast -- 76.0 69.1 79% NA NA 29.99 1014.6

Regional Weather Observation

New York, La Guardia Airport, NY (KLGA)

Partly Cloudy
79.0 F

Newark, Newark International Airport, NJ (KEWR)

Partly Cloudy
81.0 F

New York, Kennedy International Airport, NY (KJFK)

Partly Cloudy
79.0 F

Teterboro, Teterboro Airport, NJ (KTEB)

Fair
79.0 F

Caldwell, Essex County Airport, NJ (KCDW)

Fair
77.0 F

Morristown Municipal, NJ (KMMU)

Fair
64.0 F
Advertise Here

Advertise Here